Probability
0 0 0 0 0 0 0 0 0 0 0 0 0 0 0 0 0 0 0 0 0 0 0 1 2 3 2 1 1 2 2 1 0 0 0 0 0 0 0 0 0 0 0
0 0 0 0 0 0 0 0 0 0 0 0 0 0 0 0 0 0 0 0 0 0 0 1 2 3 2 1 0 1 1 0 0 0 0 0 0 0 0 0 0 0 0
0 0 0 0 0 0 0 0 0 0 0 0 0 0 0 0 0 0 0 0 0 0 0 1 2 2 1 0 0 0 0 0 0 0 0 0 0 0 0 0 0 0 0
0 0 0 0 0 0 0 0 0 0 0 0 0 0 0 0 0 0 0 0 0 0 0 0 1 1 0 0 0 0 0 0 0 0 0 0 0 0 0 0 0 0 0
0 0 0 0 0 0 0 0 0 0 0 0 0 0 0 0 0 0 0 0 0 0 0 0 0 0 0 0 0 0 0 0 0 0 0 0 0 0 0 0 0 0 0
0 0 0 0 0 0 0 0 0 0 0 0 0 0 0 0 0 0 0 0 0 0 0 0 0 0 0 0 0 0 0 0 0 0 0 0 0 0 0 0 0 0 0
0 0 0 0 0 0 0 0 0 0 0 0 0 0 0 0 0 0 0 0 0 0 0 0 0 0 0 0 0 0 0 0 0 0 0 0 0 0 0 0 0 0 0
0 0 0 0 0 0 0 0 0 0 0 0 0 0 0 0 0 0 0 0 0 0 0 0 0 0 0 0 0 0 0 0 0 0 0 0 0 0 0 0 0 0 0
0 0 0 0 0 0 0 0 0 0 0 0 0 0 0 0 0 0 0 0 0 0 0 0 0 0 0 0 0 0 0 0 0 0 0 0 0 0 0 0 0 0 0
0 0 0 0 0 0 0 0 0 0 0 0 0 0 0 0 0 0 0 0 0 0 0 0 0 0 0 0 0 0 0 0 0 0 0 0 0 0 0 0 0 0 0
0 0 0 0 0 0 0 0 0 0 0 0 0 0 0 0 0 0 0 0 0 0 0 0 0 0 0 0 0 0 0 0 0 0 0 0 0 0 0 0 0 0 0
0 0 0 0 0 0 0 0 0 0 0 0 0 0 0 0 0 0 0 0 0 0 0 0 0 0 0 0 0 0 0 0 0 0 0 0 0 0 0 0 0 0 0
0 0 0 0 0 0 0 0 0 0 0 0 0 0 0 0 0 0 0 0 0 0 0 0 0 0 0 0 0 0 0 0 0 0 0 0 0 0 0 0 0 0 0
0 0 0 0 0 0 0 0 0 0 0 0 0 0 0 0 0 0 0 0 0 0 0 0 0 0 0 0 0 0 0 0 0 0 0 0 0 0 0 0 0 0 0
0 0 0 0 0 0 0 0 0 0 0 0 0 0 0 0 0 0 0 0 0 0 0 0 0 0 0 0 0 0 0 0 0 0 0 0 0 0 0 0 0 0 0
0 0 0 0 0 0 0 0 0 0 0 0 0 0 0 0 0 0 0 0 0 0 0 0 0 0 0 0 0 0 0 0 0 0 0 0 0 0 0 0 0 0 0
1 1 0 0 0 0 0 0 0 0 0 0 0 0 0 0 0 0 0 0 0 0 0 0 0 0 0 0 0 0 0 0 0 0 0 0 0 0 0 0 0 0 0
1 1 1 1 1 1 0 0 0 0 0 0 0 0 0 0 0 0 0 0 0 0 0 0 0 0 0 0 0 0 0 0 0 0 0 0 0 0 0 0 0 0 0
4 3 1 2 2 2 1 1 0 0 0 0 0 0 0 0 0 0 0 0 0 0 0 0 0 0 0 0 0 0 0 0 0 0 0 0 0 0 0 0 0 0 0
9 7 5 4 4 4 3 2 1 0 0 0 0 0 0 0 0 0 0 0 0 0 0 0 0 0 0 0 0 0 0 0 0 0 0 0 0 0 0 0 0 0 0
15 14 11 8 6 5 4 4 3 1 0 0 0 0 0 0 0 0 0 0 0 0 0 0 0 0 0 0 0 0 0 0 0 0 0 0 0 0 0 0 0 0 0
23 21 18 13 9 7 5 4 2 1 0 0 0 0 0 0 0 0 0 0 0 0 0 0 0 0 0 0 0 0 0 0 0 0 0 0 0 0 0 0 0 0 0
30 28 23 18 14 11 8 7 5 3 2 1 0 0 0 0 0 0 0 0 0 0 0 0 0 0 0 0 0 0 0 0 0 0 0 0 0 0 0 0 0 0 0
37 33 26 22 21 19 16 15 13 10 6 3 1 0 0 0 0 0 0 0 0 0 0 0 0 0 0 0 0 0 0 0 0 0 0 0 0 0 0 0 0 0 0
42 36 28 25 26 26 24 23 21 16 11 7 3 2 1 0 1 1 1 1 0 0 0 0 0 0 0 0 0 0 0 0 0 0 0 0 0 0 0 0 0 0 0
43 37 29 27 28 29 27 25 24 20 14 9 6 3 1 1 2 2 2 2 1 0 0 0 0 0 0 0 0 0 0 0 0 0 0 0 0 0 0 0 0 0 0
Wind_Speed
3 3 9 11 12 13 14 15 15 16 16 16 16 16 16 16 16 16 16 15 15 16 16 16 16 17 17 16 16 16 15 15 15 14 14 13 13 13 14 14 13 11 15
6 5 11 12 12 13 14 14 15 15 16 16 16 15 15 16 16 15 15 15 16 16 16 16 16 16 16 16 16 16 15 14 14 14 13 12 13 13 13 14 13 10 14
8 6 9 12 12 13 13 14 14 15 15 15 15 15 15 15 15 15 15 15 15 15 16 16 16 16 15 15 15 15 14 14 14 14 13 8 9 12 12 13 14 14 14
8 6 8 12 13 13 13 13 13 14 15 15 14 14 15 14 14 15 15 15 15 15 15 15 15 15 15 15 14 14 14 14 13 12 7 7 7 11 12 13 13 13 13
7 5 8 13 13 13 13 12 13 14 14 14 14 14 14 15 15 15 15 15 15 15 15 15 15 14 14 14 13 13 13 13 13 10 7 7 6 10 12 12 13 13 13
7 6 8 13 13 12 12 12 12 13 13 13 13 13 14 14 14 14 14 14 14 14 14 14 14 14 13 12 12 12 12 13 11 8 7 6 6 10 11 12 12 12 12
7 5 7 13 13 12 12 12 12 12 13 13 13 12 13 13 13 13 14 14 13 14 13 13 13 12 11 11 11 11 12 13 8 7 6 6 6 10 11 11 11 12 12
7 6 6 12 12 12 12 12 12 12 12 12 12 12 12 12 12 13 13 13 13 13 12 12 12 11 11 11 11 11 12 12 9 7 6 5 8 10 12 11 11 12 12
6 5 4 5 8 11 11 11 11 11 11 11 11 11 11 12 12 12 11 12 12 12 11 11 11 11 10 10 11 11 12 13 7 5 6 4 9 10 11 11 11 11 12
5 5 4 4 4 4 5 10 10 10 10 10 10 10 10 10 10 11 9 10 11 10 10 10 10 10 10 9 10 10 12 10 6 5 4 5 9 10 11 11 11 11 11
6 4 4 4 4 4 4 6 7 9 9 8 7 9 8 5 5 5 7 9 9 9 9 9 9 9 9 8 9 10 9 4 5 4 3 6 9 10 10 10 10 10 10
9 6 4 5 4 4 4 3 2 3 3 4 3 4 4 4 3 4 5 7 8 8 8 8 8 9 6 4 6 8 4 5 4 3 3 7 8 9 9 9 9 10 10
10 8 6 5 5 4 3 3 2 2 2 3 4 4 3 3 3 3 2 3 4 5 4 5 5 4 3 3 3 3 4 3 2 2 3 6 7 8 8 9 9 9 9
9 9 7 6 5 4 3 3 3 2 2 2 2 3 3 2 2 2 2 2 2 2 3 3 2 3 4 3 4 4 4 3 2 2 3 6 6 7 8 8 8 9 9
10 9 8 7 6 4 4 3 3 3 3 2 2 2 3 2 2 2 1 1 2 2 2 2 2 3 3 2 2 3 3 3 3 2 2 6 6 6 7 8 9 8 8
12 10 9 9 7 6 4 3 3 3 3 2 2 3 3 2 2 2 1 1 1 1 1 2 2 2 2 2 2 2 3 3 3 3 2 3 5 5 6 7 8 8 8
12 11 10 9 7 7 6 5 4 3 3 3 2 3 3 3 3 2 1 1 1 1 2 2 2 2 2 2 2 2 2 2 2 2 2 1 2 4 6 6 6 7 7
10 10 10 10 9 8 6 5 3 3 3 3 3 3 3 3 4 3 2 1 1 2 2 2 2 2 2 2 1 1 1 1 2 2 2 2 1 2 4 6 6 6 7
11 10 10 9 9 9 7 5 4 4 4 3 3 3 3 4 4 3 2 2 2 2 1 2 2 2 2 2 1 1 0 1 1 2 3 3 2 2 2 3 5 5 7
10 9 10 8 8 7 5 4 3 3 3 3 3 3 4 4 4 4 3 2 3 2 2 2 2 2 2 2 1 1 1 1 1 2 3 3 3 4 3 3 3 3 6
10 10 10 10 8 7 5 5 4 4 3 3 4 5 5 5 5 4 3 3 3 3 3 3 2 2 1 1 2 2 2 1 1 2 2 2 3 4 4 4 3 3 3
13 12 11 11 10 8 6 5 3 3 3 3 3 4 5 5 5 5 4 4 4 3 3 3 3 2 1 1 2 2 1 2 2 1 1 3 4 3 4 5 4 4 4
14 14 13 12 10 9 7 4 3 2 1 2 3 3 4 5 6 5 5 4 4 4 4 4 4 4 2 1 1 3 2 2 2 2 1 2 3 3 4 4 5 6 5
14 12 11 11 10 9 9 8 8 7 6 5 4 4 4 5 6 6 6 5 5 4 4 5 4 3 4 2 1 1 1 3 2 1 2 1 2 3 4 4 5 5 5
11 11 10 9 9 9 10 10 9 7 5 3 3 5 5 4 5 6 6 6 5 4 5 5 4 4 3 3 3 2 2 1 1 2 2 2 2 2 3 4 4 4 5
9 9 9 10 10 10 10 10 10 9 7 6 6 6 5 3 4 5 6 6 6 5 5 5 5 5 4 4 3 3 3 3 3 3 2 2 2 2 2 3 4 4 4
Wind_Direction
146 142 119 108 102 98 97 98 98 99 100 101 102 103 102 102 103 103 105 107 108 109 109 109 110 111 111 113 112 110 111 111 111 111 111 111 112 112 112 110 109 108 111
140 136 124 115 107 102 99 99 101 101 102 102 103 103 103 103 104 104 104 106 107 108 108 109 109 111 111 111 110 111 111 110 110 110 109 109 111 112 114 113 114 114 114
131 130 127 120 113 107 103 101 102 102 103 104 104 104 104 105 105 104 104 106 108 107 107 109 109 110 110 110 110 110 107 105 106 106 104 100 108 113 114 114 115 115 114
130 126 131 126 119 113 109 106 105 104 105 105 105 104 105 105 105 105 105 107 108 108 108 109 110 109 109 109 109 109 107 105 104 102 91 95 102 112 113 113 115 114 115
125 126 138 131 124 118 113 110 108 107 107 107 107 105 105 104 103 105 104 106 108 108 108 109 110 111 111 112 112 111 109 109 104 95 88 86 93 113 115 116 116 116 117
126 130 141 133 128 123 118 115 113 110 109 108 107 107 106 105 105 105 105 106 108 108 107 107 108 110 112 114 115 115 114 110 98 92 89 92 100 113 115 117 115 116 116
129 131 140 136 132 129 124 120 116 113 112 111 109 107 106 105 104 105 105 105 108 108 107 107 106 108 110 113 114 116 116 113 102 95 91 94 105 112 113 114 115 116 117
132 130 139 141 137 134 129 125 121 119 116 114 112 110 108 107 106 106 107 107 108 108 108 106 104 105 108 111 113 118 120 118 110 106 100 103 113 115 114 113 113 116 118
127 128 132 137 139 140 136 131 126 122 120 117 115 113 110 108 108 108 107 108 110 109 106 104 104 105 110 113 115 118 120 118 112 113 113 108 115 117 116 115 116 117 119
124 126 126 122 120 125 133 137 133 129 125 122 120 117 113 109 108 106 104 109 111 109 107 105 104 104 105 110 116 120 121 115 110 108 109 122 122 120 122 120 118 118 120
148 134 131 127 122 120 130 145 138 134 131 125 122 119 102 78 81 94 108 112 111 109 105 102 101 102 101 100 111 114 112 109 112 111 115 132 132 128 126 125 124 124 125
169 166 152 142 138 137 146 120 106 107 105 94 91 97 88 83 80 89 96 107 106 101 97 93 91 91 87 81 97 100 101 112 113 121 134 143 139 134 133 133 133 132 132
171 172 166 156 151 146 129 122 101 93 92 92 98 100 94 83 72 68 59 64 63 70 63 66 68 76 86 92 94 101 111 112 118 130 145 151 149 148 144 140 139 139 137
173 178 171 165 157 152 137 132 124 119 113 110 111 113 104 94 84 82 73 65 61 59 61 56 66 80 89 96 106 113 116 119 124 126 156 159 158 156 153 150 146 144 141
178 180 178 173 168 160 149 155 148 143 139 137 131 131 129 124 124 108 92 77 75 73 74 71 72 81 92 99 112 122 125 129 135 134 147 165 166 167 163 161 156 152 152
184 184 180 181 176 166 166 165 156 155 149 146 154 162 158 149 148 140 121 95 80 80 82 82 87 94 90 97 106 122 134 138 140 140 137 163 173 177 175 170 166 165 165
186 182 181 182 176 175 175 177 167 163 159 167 174 176 174 166 161 157 155 153 140 107 99 88 78 75 86 93 96 109 128 140 146 151 156 160 177 186 188 188 182 179 178
182 181 184 186 180 181 180 176 164 164 167 177 176 176 185 180 169 161 167 181 147 120 116 112 95 81 75 86 91 88 108 134 166 171 172 179 184 197 206 203 197 194 192
184 182 182 183 180 183 179 172 168 166 175 179 175 176 184 180 174 167 175 177 146 131 135 139 105 112 117 110 110 90 87 173 197 198 201 202 200 202 208 215 214 209 208
183 183 184 183 181 176 168 160 159 169 181 177 183 185 183 182 177 168 171 173 151 142 145 128 118 99 110 124 110 78 12 265 227 221 225 216 212 215 210 217 224 225 222
182 184 186 186 184 175 172 176 174 184 186 186 194 188 185 184 179 174 173 164 163 169 171 151 130 123 113 116 90 41 3 351 254 237 230 223 224 224 215 215 217 221 227
189 189 190 191 187 185 187 180 169 164 182 189 192 186 187 184 182 186 176 175 174 167 163 159 149 136 136 140 127 100 7 345 333 261 226 223 229 222 223 222 215 217 221
192 193 195 193 188 187 179 156 138 120 113 163 187 196 196 187 187 187 183 178 178 176 182 184 172 163 168 166 148 147 153 230 306 326 284 243 230 220 225 222 221 221 219
194 190 192 188 186 183 176 176 175 182 191 194 183 191 194 190 190 189 185 183 182 182 186 193 184 172 160 173 172 175 170 164 164 315 322 306 264 237 233 229 227 226 221
187 185 186 183 186 184 184 187 188 194 192 173 169 183 194 196 197 193 187 185 186 189 193 193 181 180 176 176 175 170 154 135 150 169 271 309 309 264 241 235 234 230 223
178 178 179 185 192 187 187 189 193 194 185 178 185 191 196 193 199 200 194 192 191 191 197 198 191 189 194 189 184 179 173 174 184 178 209 246 270 281 262 241 234 233 229